Oldest pages

From PresenceWiki
Jump to: navigation, search

Showing below up to 230 results in range #1 to #230.

View (previous 250) (next 250) (20 | 50 | 100 | 250 | 500).

  1. Presence Domain‏‎ (10:42, 16 March 2009)
  2. Richard Knill‏‎ (14:25, 16 March 2009)
  3. Set Passphrase‏‎ (09:30, 17 March 2009)
  4. Domain Passphrase‏‎ (09:56, 17 March 2009)
  5. Best Use‏‎ (08:13, 18 March 2009)
  6. Advanced File Options‏‎ (10:40, 11 November 2009)
  7. Processes‏‎ (07:02, 5 January 2010)
  8. On Demand Client‏‎ (07:32, 5 January 2010)
  9. Make Your Own Drink Wednesday‏‎ (12:49, 16 June 2010)
  10. Iterative execution path‏‎ (10:19, 22 June 2010)
  11. Retrieve Data Table‏‎ (06:35, 23 June 2010)
  12. Rename File‏‎ (07:09, 23 June 2010)
  13. JMS Consumer‏‎ (07:11, 23 June 2010)
  14. Message Transporters‏‎ (09:42, 28 June 2010)
  15. Heartbeat Server‏‎ (10:54, 29 June 2010)
  16. Remote Program Call Server‏‎ (06:15, 30 June 2010)
  17. Scorecard Resource‏‎ (06:08, 1 July 2010)
  18. Inline Wikidocs links‏‎ (06:10, 1 July 2010)
  19. Store Data Table‏‎ (07:38, 1 July 2010)
  20. Suggestion provider‏‎ (11:50, 2 July 2010)
  21. Activity Archive Viewer‏‎ (05:36, 6 July 2010)
  22. Create Web Application‏‎ (08:09, 12 July 2010)
  23. About Presence V3‏‎ (10:12, 12 July 2010)
  24. Task Log Settings‏‎ (12:29, 12 July 2010)
  25. Import Tasks‏‎ (09:27, 13 July 2010)
  26. Regular expressions‏‎ (10:44, 13 July 2010)
  27. Copy File‏‎ (12:09, 13 July 2010)
  28. Securing Categories‏‎ (12:49, 13 July 2010)
  29. Connecting To Pointbase‏‎ (06:31, 14 July 2010)
  30. Messaging Platform‏‎ (07:16, 14 July 2010)
  31. Printing from Presence‏‎ (07:17, 14 July 2010)
  32. International Presence‏‎ (08:17, 14 July 2010)
  33. Surbiton‏‎ (08:24, 14 July 2010)
  34. Indialantic‏‎ (08:25, 14 July 2010)
  35. CSV Writer‏‎ (08:50, 14 July 2010)
  36. Task Explorer‏‎ (09:12, 14 July 2010)
  37. Scheduled‏‎ (09:15, 14 July 2010)
  38. Anonymous Node‏‎ (09:18, 14 July 2010)
  39. Audit Viewer‏‎ (09:34, 14 July 2010)
  40. Recipients‏‎ (10:41, 14 July 2010)
  41. SOAP‏‎ (06:57, 21 July 2010)
  42. WSDL‏‎ (12:11, 21 July 2010)
  43. Telex / Fax 400‏‎ (12:23, 22 July 2010)
  44. Telephony‏‎ (10:59, 27 July 2010)
  45. Identicality‏‎ (07:56, 29 July 2010)
  46. To Do Items‏‎ (09:10, 24 August 2010)
  47. Data Table Nodes‏‎ (11:58, 24 January 2011)
  48. New Main Page‏‎ (06:28, 3 February 2011)
  49. Scriptlet Editor‏‎ (08:55, 10 February 2011)
  50. Connecting To SQL Server‏‎ (07:01, 4 May 2011)
  51. Telephony Application Using Tapi 2.1‏‎ (11:15, 4 August 2011)
  52. FAXCOM Java Api‏‎ (11:53, 31 October 2011)
  53. TF400Gateway TroubleShooting‏‎ (11:33, 1 November 2011)
  54. IMPSCloud API‏‎ (14:42, 1 November 2011)
  55. CloudFax Server Responses‏‎ (06:36, 21 December 2011)
  56. Configuring the http server for https using the keytool‏‎ (13:50, 23 January 2012)
  57. Tutorial Pages‏‎ (06:17, 27 February 2012)
  58. Custom Servlets‏‎ (10:42, 9 March 2012)
  59. HTTP Server‏‎ (06:16, 26 March 2012)
  60. Working With FaxAttendant‏‎ (10:39, 2 April 2012)
  61. Internet Mail Archive System‏‎ (10:38, 24 May 2012)
  62. Communitcation between the AS400, CloudFaxGateway and the TF400Gateway‏‎ (05:06, 11 July 2012)
  63. IMPSCloud‏‎ (12:57, 19 July 2012)
  64. Windows Authentication In A Web Application‏‎ (09:25, 17 October 2012)
  65. IMAS System at DAS‏‎ (09:47, 17 October 2012)
  66. Socket Server Node‏‎ (09:50, 17 October 2012)
  67. Variable Nodes‏‎ (09:51, 17 October 2012)
  68. Presence User Management‏‎ (09:55, 17 October 2012)
  69. Fax Attendant‏‎ (09:57, 17 October 2012)
  70. Generate Bar Code‏‎ (11:33, 30 April 2013)
  71. Upgrading Fax Attendant‏‎ (09:00, 11 June 2013)
  72. Message Channels‏‎ (08:03, 18 March 2014)
  73. Installation Guide‏‎ (07:36, 12 August 2015)
  74. Presenceconfig.xml‏‎ (08:02, 12 August 2015)
  75. Resources‏‎ (08:38, 12 August 2015)
  76. Database Server‏‎ (08:53, 12 August 2015)
  77. Connecting To HyperSQL (hsqldb)‏‎ (10:12, 12 August 2015)
  78. Database Connectivity‏‎ (10:14, 12 August 2015)
  79. Presence Introduction‏‎ (06:51, 13 August 2015)
  80. Function Call‏‎ (04:55, 14 August 2015)
  81. Main Page‏‎ (10:47, 19 August 2015)
  82. Presence Server‏‎ (10:55, 19 August 2015)
  83. Administration Client‏‎ (10:58, 19 August 2015)
  84. Debug‏‎ (11:00, 19 August 2015)
  85. Heartbeat Client‏‎ (11:02, 19 August 2015)
  86. Organisation‏‎ (11:19, 19 August 2015)
  87. Object Monitor Nodes‏‎ (11:34, 19 August 2015)
  88. Sleep For n Seconds‏‎ (11:37, 19 August 2015)
  89. Parse File Action‏‎ (11:43, 19 August 2015)
  90. Flat File Parser‏‎ (11:44, 19 August 2015)
  91. Presence Text Area‏‎ (11:46, 19 August 2015)
  92. Fax Attendant 400‏‎ (11:56, 19 August 2015)
  93. Clear Data Table‏‎ (11:57, 19 August 2015)
  94. Upgrading Presence‏‎ (11:58, 19 August 2015)
  95. JSON Node‏‎ (12:00, 19 August 2015)
  96. Dynamic Task Calls‏‎ (12:01, 19 August 2015)
  97. Basic XML Writer‏‎ (12:13, 19 August 2015)
  98. XML Document Writer‏‎ (12:14, 19 August 2015)
  99. Task Design‏‎ (05:48, 20 August 2015)
  100. Server Ports‏‎ (05:50, 20 August 2015)
  101. Nested Tasks‏‎ (05:51, 20 August 2015)
  102. Transaction Control Nodes‏‎ (05:55, 20 August 2015)
  103. Error Handler‏‎ (05:56, 20 August 2015)
  104. Throw Exception‏‎ (05:57, 20 August 2015)
  105. Decision Point Nodes‏‎ (05:58, 20 August 2015)
  106. Switch Node‏‎ (05:59, 20 August 2015)
  107. Catch Up Policy‏‎ (06:00, 20 August 2015)
  108. Schedule Nodes‏‎ (06:02, 20 August 2015)
  109. Category‏‎ (06:03, 20 August 2015)
  110. Task Export‏‎ (06:05, 20 August 2015)
  111. FTP Upload‏‎ (06:08, 20 August 2015)
  112. FTP Connection Resource‏‎ (06:11, 20 August 2015)
  113. FTP Connections‏‎ (06:14, 20 August 2015)
  114. XML Query Tool‏‎ (06:26, 20 August 2015)
  115. Document Locator‏‎ (06:28, 20 August 2015)
  116. Variables‏‎ (06:31, 20 August 2015)
  117. Set Variable‏‎ (06:35, 20 August 2015)
  118. Presence Context‏‎ (06:36, 20 August 2015)
  119. Create Data Table‏‎ (06:38, 20 August 2015)
  120. Data Table‏‎ (06:40, 20 August 2015)
  121. Send Email‏‎ (06:41, 20 August 2015)
  122. Database Resource‏‎ (07:08, 20 August 2015)
  123. SQL Statement Nodes‏‎ (07:12, 20 August 2015)
  124. Function Test Console‏‎ (08:29, 20 August 2015)
  125. Function Manager‏‎ (08:30, 20 August 2015)
  126. New Function Wizard‏‎ (08:32, 20 August 2015)
  127. Jar Manager‏‎ (08:32, 20 August 2015)
  128. Scriptlet‏‎ (08:36, 20 August 2015)
  129. Category Options‏‎ (08:37, 20 August 2015)
  130. New Task Dialog‏‎ (08:38, 20 August 2015)
  131. Edit View‏‎ (08:39, 20 August 2015)
  132. Menu Options (Admin Client)‏‎ (08:39, 20 August 2015)
  133. Open Recent‏‎ (08:40, 20 August 2015)
  134. Deprecated Tasks‏‎ (08:41, 20 August 2015)
  135. Live Tasks Queue‏‎ (08:42, 20 August 2015)
  136. Web Service Properties‏‎ (08:43, 20 August 2015)
  137. Start of Task Node‏‎ (08:46, 20 August 2015)
  138. End of Task‏‎ (08:47, 20 August 2015)
  139. Execution Paths‏‎ (08:48, 20 August 2015)
  140. Task Designer‏‎ (08:50, 20 August 2015)
  141. Dataset Splitter‏‎ (08:52, 20 August 2015)
  142. Passive Node‏‎ (08:54, 20 August 2015)
  143. Resources Explorer‏‎ (08:55, 20 August 2015)
  144. Search Dialog‏‎ (08:56, 20 August 2015)
  145. Log Entry‏‎ (09:04, 20 August 2015)
  146. Fork Execution‏‎ (09:04, 20 August 2015)
  147. On Demand‏‎ (09:09, 20 August 2015)
  148. Join Forked Threads‏‎ (09:15, 20 August 2015)
  149. Start Synch Block‏‎ (09:16, 20 August 2015)
  150. End Synch Block‏‎ (09:16, 20 August 2015)
  151. Synchronize Blocks‏‎ (09:17, 20 August 2015)
  152. Event Notification Nodes‏‎ (09:18, 20 August 2015)
  153. Task‏‎ (09:44, 20 August 2015)
  154. SMTP‏‎ (09:46, 20 August 2015)
  155. Mail Accounts‏‎ (09:47, 20 August 2015)
  156. Text Template Resources‏‎ (09:48, 20 August 2015)
  157. LDAP Resource‏‎ (09:52, 20 August 2015)
  158. LDAP Query Nodes‏‎ (09:54, 20 August 2015)
  159. Anonymous Nodes‏‎ (09:55, 20 August 2015)
  160. POP Scanner‏‎ (09:58, 20 August 2015)
  161. Mail Scanner Nodes‏‎ (10:01, 20 August 2015)
  162. Task Log Viewer‏‎ (10:03, 20 August 2015)
  163. Toolbar Items‏‎ (10:03, 20 August 2015)
  164. Task Statistics Console‏‎ (10:04, 20 August 2015)
  165. Web Services Nodes‏‎ (10:09, 20 August 2015)
  166. Incoming Web Service Requests Tutorial‏‎ (10:16, 20 August 2015)
  167. Performance‏‎ (10:42, 20 August 2015)
  168. Data Filter‏‎ (11:38, 20 August 2015)
  169. Convert image file‏‎ (05:49, 21 August 2015)
  170. Sockets‏‎ (06:19, 21 August 2015)
  171. Maintenance‏‎ (06:37, 21 August 2015)
  172. Table Writer‏‎ (07:37, 21 August 2015)
  173. Web Application Creation Tutorial‏‎ (08:22, 21 August 2015)
  174. Socket Client Node‏‎ (08:23, 21 August 2015)
  175. Scrapbook‏‎ (08:25, 21 August 2015)
  176. Connecting to Oracle‏‎ (08:26, 21 August 2015)
  177. Delete File‏‎ (08:28, 21 August 2015)
  178. Presence Migration Guide‏‎ (08:32, 21 August 2015)
  179. Properties Tree‏‎ (08:33, 21 August 2015)
  180. Connecting to DB2‏‎ (08:34, 21 August 2015)
  181. Append Data Column‏‎ (08:35, 21 August 2015)
  182. JMS Producer‏‎ (08:36, 21 August 2015)
  183. Load Balancing‏‎ (08:38, 21 August 2015)
  184. Robert McGlade‏‎ (08:40, 21 August 2015)
  185. Channel Subscription‏‎ (08:41, 21 August 2015)
  186. Channel Manager‏‎ (08:42, 21 August 2015)
  187. Sort Data Table‏‎ (08:44, 21 August 2015)
  188. Custom Data Formatter Standard Option‏‎ (08:47, 21 August 2015)
  189. Database Backup‏‎ (08:47, 21 August 2015)
  190. Task Variables‏‎ (08:48, 21 August 2015)
  191. AS400 Action‏‎ (08:50, 21 August 2015)
  192. Variable Unlocker‏‎ (08:51, 21 August 2015)
  193. Connecting To Access‏‎ (08:53, 21 August 2015)
  194. Drop Duplicate Rows‏‎ (08:54, 21 August 2015)
  195. Broadcast Messages‏‎ (08:56, 21 August 2015)
  196. XSLT Processor‏‎ (08:58, 21 August 2015)
  197. CloudFax‏‎ (09:02, 21 August 2015)
  198. Connecting To AS400 / iSeries‏‎ (09:21, 21 August 2015)
  199. Architecture‏‎ (09:21, 21 August 2015)
  200. Padded Text Writer‏‎ (09:22, 21 August 2015)
  201. Calculate Column Aggregate‏‎ (09:25, 21 August 2015)
  202. Context XML Nodes‏‎ (09:28, 21 August 2015)
  203. Matt Pryor‏‎ (09:29, 21 August 2015)
  204. Graham Roberts‏‎ (09:30, 21 August 2015)
  205. Custom Nodes‏‎ (09:32, 21 August 2015)
  206. Drop Column Node‏‎ (09:36, 21 August 2015)
  207. Drop Row(s)‏‎ (09:37, 21 August 2015)
  208. Require Columns‏‎ (09:38, 21 August 2015)
  209. Merge Data‏‎ (09:53, 21 August 2015)
  210. Require Variable(s)‏‎ (09:53, 21 August 2015)
  211. Multiple Variable Setter‏‎ (09:54, 21 August 2015)
  212. Global Variables (Scope)‏‎ (09:55, 21 August 2015)
  213. HTML Table Writer‏‎ (09:57, 21 August 2015)
  214. Pdf‏‎ (10:06, 21 August 2015)
  215. Send Fax‏‎ (10:20, 21 August 2015)
  216. Send SMS‏‎ (10:20, 21 August 2015)
  217. Read Text File‏‎ (10:21, 21 August 2015)
  218. Read Binary File‏‎ (10:21, 21 August 2015)
  219. Write Text File‏‎ (10:22, 21 August 2015)
  220. Write Binary File Node‏‎ (10:22, 21 August 2015)
  221. Call Native Program‏‎ (10:24, 21 August 2015)
  222. Create Graph‏‎ (10:26, 21 August 2015)
  223. Calling On Demand Tasks‏‎ (11:54, 1 September 2015)
  224. While Node‏‎ (11:49, 3 September 2015)
  225. Rules‏‎ (11:51, 3 September 2015)
  226. Task Elements‏‎ (12:52, 4 September 2015)
  227. Loop Until‏‎ (07:00, 7 September 2015)
  228. Functions‏‎ (07:05, 7 September 2015)
  229. PDF Updated‏‎ (12:43, 7 September 2015)
  230. Read Bar Code‏‎ (05:47, 23 September 2015)

View (previous 250) (next 250) (20 | 50 | 100 | 250 | 500).